Preview of NWS' New Version of Forecast
This preview is not operational and should not be used for support decisions.

Regional Weather Roundup (RWR)

Issued by National Weather Service (NWS)

                            
000
ASUS45 KBOU 200910
RWRCO 

WEATHER ROUNDUP FOR COLORADO
NATIONAL WEATHER SERVICE DENVER/BOULDER CO
200 AM MST WED FEB 20 2019

NOTE: "FAIR" INDICATES FEW OR NO CLOUDS BELOW 12000 FEET WITH NO
SIGNIFICANT WEATHER AND/OR OBSTRUCTIONS TO VISIBILITY.

COZ001>005-013-030-031-201000-
...NORTHWEST COLORADO...
  
CITY           SKY/WX    TMP DP  RH WIND       PRES   REMARKS
CRAIG          LGT SNOW   5   1  83 CALM      29.71F VSB 1            
HAYDEN         LGT SNOW   3   0  85 CALM      29.69F FOG              
MEEKER         LGT SNOW   7   1  76 SE3       29.71F                  
RANGELY        CLOUDY     6   2  86 CALM      29.77F                  
RABBIT EARS PA LGT SNOW N/A N/A N/A W13G18    29.41F                  
STEAMBOAT SPGS CLOUDY     1  -2  88 CALM      29.66S                  
WALDEN         CLOUDY    -4 -11  71 SE5       29.55F WCI -15          
$$

COZ006>008-011-201000-
...WEST CENTRAL VALLEYS...
  
CITY           SKY/WX    TMP DP  RH WIND       PRES   REMARKS
GRAND JUNCTION LGT SNOW  17  16  95 NW6       29.79F FOG     WCI   9  
MONTROSE       CLOUDY    19   8  62 SE7       29.78F WCI  10          
EAGLE          FAIR       2  -2  83 CALM      29.71F                  
RIFLE          LGT SNOW  16  13  88 S5        29.76S FOG     WCI   9  
DELTA          FAIR      22  15  75 SW6       29.78F WCI  14          
NUCLA          FAIR      19  12  73 SW3       29.81S                  
$$

COZ017>023-064>068-201000-
...SOUTHWEST COLORADO...
  
CITY           SKY/WX    TMP DP  RH WIND       PRES   REMARKS
DURANGO        MOCLDY    -7  -9  91 NE8       29.75S WCI -23          
CORTEZ         LGT SNOW  12   8  84 N3        29.80S FOG              
PAGOSA SPRINGS MOCLDY   N/A N/A N/A CALM      29.71R                  
TELLURIDE      LGT SNOW   3   0  85 SE3       29.66S                  
WOLF CREEK PAS CLOUDY    -8  -9  92 S23G33    29.49F WCI -33          
$$

COZ009-010-012-014-032>034-037-058>063-201000-
...CENTRAL COLORADO...
  
CITY           SKY/WX    TMP DP  RH WIND       PRES   REMARKS
ASPEN          LGT SNOW   9   4  80 NE3       29.60S                  
BUENA VISTA    FAIR       7  -7  53 N13G21    29.55S WCI  -9          
COPPER MTN     LGT SNOW  -4  -9  77 W20G25    29.34F WCI -27          
BERTHOUD PASS  CLOUDY   -13 -24  58 NW35G46   29.23F WCI -45          
COTTONWOOD PAS CLOUDY     7  -8  51 NW14G26   29.45F WCI -10          
GUNNISON       FLURRIES  -8 -13  78 N6        29.65F WCI -21          
GRANBY         CLOUDY    -2  -6  82 NE5       29.57S WCI -13          
KREMMLING      FAIR      -6  -9  84 N5        29.63F WCI -17          
LEADVILLE      LGT SNOW  -4  -8  83 N6        29.46F FOG     WCI -16  
MONARCH PASS   CLOUDY    -6 -11  77 W37G52    29.47F WCI -36          
SALIDA         MOCLDY    14  -3  47 W9        29.66S WCI   2          
SUNLIGHT       LGT SNOW N/A N/A N/A SW9       29.53S                  
WILKERSON PASS LGT SNOW  -4  -9  77 W13G23    29.36F WCI -23          
$$

COZ069>075-201000-
...SAN LUIS VALLEY/SANGRE DE CRISTO MOUNTAINS...
  
CITY           SKY/WX    TMP DP  RH WIND       PRES   REMARKS
ALAMOSA        FAIR       3  -3  76 SE5       29.63S WCI  -6          
DEL NORTE      FAIR       5  -6  60 W13       29.61F WCI -11          
LA VETA PASS   NOT AVBL                                               
SAGUACHE       FAIR       3  -4  72 CALM      29.62S                  
$$

COZ035-036-038>040-201000-
...NORTHERN COLORADO FRONT RANGE...
  
CITY           SKY/WX    TMP DP  RH WIND       PRES   REMARKS
DENVER INTL AP FAIR      11   9  92 SW6       29.59F FOG     WCI   1  
AURORA         PTCLDY    10   9  96 S7        29.58F WCI  -1          
FRONT RANGE AP NOT AVBL                                               
ERIE MUNI ARPT FAIR      10   7  87 N3        29.66F                  
BOULDER MUN AP FAIR      12   9  85 NW3       29.59F                  
CENTENNIAL     FAIR       8   4  83 SE7       29.57F WCI  -3          
BROOMFIELD     FAIR      21  -2  35 W18G31    29.57F WCI   6          
FORT COLLINS   FOG       12  10  92 E3        29.61F VSB 1/4          
LONGMONT       FAIR      10   6  81 CALM      29.63F HAZE             
$$

COZ041-046-047-076>085-087-088-201000-
...PIKES PEAK/PALMER DIVIDE AND SOUTHERN FOOTHILLS...
  
CITY           SKY/WX    TMP DP  RH WIND       PRES   REMARKS
COLO. SPRINGS  FAIR       7   3  84 N5        29.59F WCI  -2          
A. F. ACADEMY  FAIR      -1  -6  82 E5        29.56F WCI -12          
SCHRIEVER AFB  NOT AVBL                                               
CHEYENNE MTN   FAIR       9   8  93 CALM      29.50F                  
ELLICOTT       CLOUDY   N/A N/A N/A CALM        N/A                   
FALCON         FAIR       6   1  79 NW3       29.56F                  
FORT CARSON    FAIR       6   2  84 N3        29.58F                  
LIMON          FAIR       0  -1  96 NW5       29.61F WCI -10          
MONUMENT HILL  NOT AVBL                                               
CANON CITY     NOT AVBL                                               
WALSENBURG     NOT AVBL                                               
TRINIDAD       FAIR      11   8  88 CALM      29.64F                  
$$

COZ042>045-048>051-090-091-201000-
...NORTHEAST COLORADO...
  
CITY           SKY/WX    TMP DP  RH WIND       PRES   REMARKS
GREELEY ARPT   FOG       12  10  92 CALM      29.64F VSB 1/2          
AKRON          FAIR       7   5  91 W6        29.62F WCI  -3          
BURLINGTON     CLOUDY    11   7  84 SW7       29.66F WCI   0          
WRAY           CLOUDY    14  12  92 CALM      29.68F FOG              
YUMA           PTSUNNY    9   5  85 SW3       29.65F FOG              
STERLING       FAIR       9   7  92 W7        29.65F WCI  -3          
HOLYOKE        FAIR      12   9  85 W5        29.68F WCI   4          
FORT MORGAN      N/A     13  11  90 W6        29.65F WCI   4          
$$

COZ086-089-092>099-201000-
...SOUTHEAST COLORADO...
  
CITY           SKY/WX    TMP DP  RH WIND       PRES   REMARKS
PUEBLO         FAIR      12   9  87 CALM      29.66F FOG              
LA JUNTA       FAIR      14  10  84 W8        29.70F WCI   3          
LAMAR          CLOUDY    17  13  84 MISG      29.68S                  
SPRINGFIELD      N/A     19  16  88 NW18G26   29.64F WCI   4          
$$